Cancun, Mexico

9:47 PM on August 17, 2017 (GMT +0000)
Cancun International

Weather History for MMUN - September, 2013

Change the Weather History Date:

Saturday, September 14, 2013

  Actual Average Record
Temperature  
Mean Temperature 78 °F -  
Max Temperature 84 °F 88 °F 95 °F (2006)
Min Temperature 73 °F 73 °F 46 °F (2004)
Cooling Degree Days 14    
Growing Degree Days 28 (Base 50)    
Moisture  
Dew Point 74 °F    
Average Humidity 85    
Maximum Humidity 94    
Minimum Humidity 74    
Precipitation  
Precipitation 0.05 in - - ()
Sea Level Pressure  
Sea Level Pressure 29.83 in    
Wind  
Wind Speed 8 mph ()    
Max Wind Speed 16 mph    
Max Gust Speed -    
Visibility 6.3 miles    
Events Rain    
Averages and records for this station are not official NWS values.
T = Trace of Precipitation, MM = Missing Value Source: Averaged Metar Reports

Daily Weather History Graph

Daily Weather History Graph

Search for Another Location

Airport or City:

Trip Planner

Search our weather history database for the weather conditions in past years. The results will help you decide how hot, cold, wet, or windy it might be!

Date:

Astronomy

Sep. 14, 2013 Rise Set
Actual Time 6:34 AM CDT 6:51 PM CDT
Civil Twilight 6:12 AM CDT 7:13 PM CDT
Nautical Twilight 5:46 AM CDT 7:39 PM CDT
Astronomical Twilight 5:20 AM CDT 8:05 PM CDT
Moon 3:04 PM CDT (9/14) 1:35 AM CDT (9/14)
Length of Visible Light 13h 01m
Length of Day
12h 16m
Waxing Gibbous, 72% of the Moon is Illuminated
Sep 14
Waxing Gibbous
Sep 19
Full
Sep 26
Last Quarter
Oct 4
New
Oct 11
First Quarter

Hourly Weather History & Observations

Time (CDT) Temp. Heat Index Dew Point Humidity Pressure Visibility Wind Dir Wind Speed Gust Speed Precip Events Conditions
12:45 AM 77.0 °F - 73.4 °F 89% 29.81 in 6.0 mi South 10.4 mph - N/A   Mostly Cloudy
1:43 AM 75.2 °F - 73.4 °F 94% 29.80 in 5.0 mi SSW 4.6 mph - N/A Rain Light Rain
2:48 AM 75.2 °F - 73.4 °F 94% 29.79 in 6.0 mi SSE 10.4 mph - N/A   Mostly Cloudy
3:50 AM 77.0 °F - 73.4 °F 89% 29.79 in 6.0 mi SSE 5.8 mph - N/A   Mostly Cloudy
4:47 AM 77.0 °F - 73.4 °F 89% 29.79 in 6.0 mi SSE 5.8 mph - N/A   Mostly Cloudy
5:51 AM 77.0 °F - 73.4 °F 89% 29.81 in 6.0 mi ESE 3.5 mph - N/A   Mostly Cloudy
6:42 AM 75.2 °F - 73.4 °F 94% 29.81 in 6.0 mi South 8.1 mph - N/A   Overcast
7:46 AM 73.4 °F - 71.6 °F 94% 29.85 in 2.0 mi SSE 16.1 mph - N/A Rain Rain
8:06 AM 73.4 °F - 71.6 °F 94% 29.85 in 5.0 mi SSE 5.8 mph - N/A Rain Light Rain
8:48 AM 75.2 °F - 73.4 °F 94% 29.85 in 7.0 mi SE 9.2 mph - N/A   Overcast
9:42 AM 80.6 °F 86.2 °F 75.2 °F 84% 29.86 in 7.0 mi SE 9.2 mph - N/A   Overcast
10:41 AM 82.4 °F 88.2 °F 73.4 °F 74% 29.85 in 7.0 mi SE 10.4 mph - N/A   Mostly Cloudy
11:42 AM 84.2 °F 92.3 °F 75.2 °F 74% 29.85 in 8.0 mi SE 12.7 mph - N/A   Overcast
12:42 PM 84.2 °F 92.3 °F 75.2 °F 74% 29.86 in 8.0 mi ESE 10.4 mph - N/A   Mostly Cloudy
1:42 PM 84.2 °F 94.1 °F 77.0 °F 79% 29.82 in 8.0 mi East 8.1 mph - N/A   Mostly Cloudy
2:41 PM 84.2 °F 94.1 °F 77.0 °F 79% 29.81 in 8.0 mi ESE 9.2 mph - N/A   Mostly Cloudy
3:47 PM 84.2 °F 92.3 °F 75.2 °F 74% 29.81 in 7.0 mi ESE 10.4 mph - N/A   Mostly Cloudy
4:41 PM 82.4 °F 89.5 °F 75.2 °F 79% 29.80 in 7.0 mi ESE 10.4 mph - N/A   Mostly Cloudy
5:44 PM 80.6 °F 86.2 °F 75.2 °F 84% 29.83 in 7.0 mi East 12.7 mph - N/A   Mostly Cloudy
6:47 PM 78.8 °F - 75.2 °F 89% 29.84 in 6.0 mi ESE 9.2 mph - N/A   Overcast
7:40 PM 80.6 °F 85.4 °F 73.4 °F 79% 29.85 in 6.0 mi East 8.1 mph - N/A   Overcast
8:44 PM 80.6 °F 86.2 °F 75.2 °F 84% 29.87 in 6.0 mi ESE 6.9 mph - N/A   Overcast
9:48 PM 80.6 °F 86.2 °F 75.2 °F 84% 29.85 in 6.0 mi ESE 5.8 mph - N/A   Overcast
10:47 PM 78.8 °F - 75.2 °F 89% 29.89 in 6.0 mi East 5.8 mph - N/A   Overcast
11:46 PM 78.8 °F - 75.2 °F 89% 29.89 in 6.0 mi East 5.8 mph - N/A   Overcast